Flag for Canada Weather past 2 weeks in Stonewall, Manitoba, Canada

Now
34 °F

Fog.


Feels Like: 24 °F
Forecast: 25 / 30 °F
Wind: 14 mph from Northeast

Location: Winnipeg Int. Airportman.

Current Time: Dec 22, 2014 at 6:25:44 PM

Latest Report: Dec 22, 2014 at 5:00 PM


Visibility: 6 mi

Pressure: 29.76 "Hg

Humidity: 93%

Dew point: 32 °F

Location of StonewallLocation

Historic Weather in Stonewall — Graph

°F

Stonewall temperature yesterday

Maximum temperature yesterday: 30 °F (at 4:00 AM)
Minimum temperature yesterday: 28 °F (at 12:00 AM)
Average temperature yesterday: 29 °F

Past Weeks' High & Low Weather Summary

 TemperatureHumidityPressure
High34 °F (Dec 12, 2:00 PM)100% (Dec 11, 9:00 AM)30.52 "Hg (Dec 11, 9:00 AM)
Low-6 °F (Dec 17, 3:00 AM)67% (Dec 8, 2:00 PM)29.63 "Hg (Dec 21, 3:00 PM)
Average21 °F89%30.08 "Hg
* Reported Dec 7 5:00 PM — Dec 22 5:00 PM, Stonewall, Weather by CustomWeather, © 2014

Note: Actual official high and low records may vary slightly from our data, if they occured in-between our weather recording intervals... More about our weather records

Advertising

Stonewall weather history for previous 24 hours

 ConditionsComfort  
Time TempWeatherWind HumidityBarometerVisibility
5:00 PM
Dec 22
34 °FFog.14 mph93%29.76 "Hg6 mi
4:00 PM34 °FFog.9 mph93%29.73 "Hg6 mi
3:00 PM34 °FFog.8 mph93%29.71 "Hg6 mi
2:00 PM34 °FFog.10 mph93%29.69 "Hg6 mi
1:00 PM34 °FFog.8 mph93%29.68 "Hg6 mi
12:00 PM34 °FFog.8 mph93%29.67 "Hg6 mi
11:00 AM34 °FFog.7 mph93%29.68 "Hg6 mi
10:00 AM32 °FLight snow. Ice fog.9 mph100%29.67 "Hg6 mi
9:00 AM32 °FLight snow. Ice fog.8 mph100%29.66 "Hg2 mi
8:00 AM32 °FLight snow. Ice fog.9 mph100%29.65 "Hg2 mi
7:48 AM32 °FLight snow. Ice fog.9 mph100%29.65 "Hg2 mi
7:00 AM32 °FIce fog.8 mph100%29.65 "Hg2 mi
6:48 AM32 °FIce fog.10 mph93%29.65 "Hg2 mi
6:00 AM32 °FIce fog.9 mph93%29.64 "Hg1 mi
5:00 AM30 °FIce fog.10 mph100%29.64 "Hg1 mi
4:00 AM30 °FIce fog.9 mph100%29.64 "Hg2 mi
3:00 AM30 °FIce fog.9 mph100%29.65 "Hg2 mi
2:46 AM30 °FIce fog.10 mph100%29.65 "Hg2 mi
2:00 AM30 °FIce fog.9 mph100%29.65 "Hg2 mi
1:00 AM30 °FIce fog.8 mph100%29.65 "Hg2 mi
12:00 AM30 °FIce fog.10 mph100%29.65 "Hg2 mi
11:00 PM
Dec 21
30 °FIce fog.10 mph100%29.64 "Hg2 mi
10:00 PM30 °FIce fog.12 mph100%29.64 "Hg2 mi
9:00 PM30 °FIce fog.13 mph93%29.64 "Hg2 mi
8:00 PM30 °FIce fog.13 mph93%29.65 "Hg2 mi
7:00 PM30 °FIce fog.15 mph93%29.65 "Hg2 mi
6:00 PM30 °FIce fog.17 mph93%29.65 "Hg4 mi
Weather by CustomWeather, © 2014

See weather overviewHow to use our weather pages